Preview of NWS' New Version of Forecast
This preview is not operational and should not be used for support decisions.

Regional Weather Roundup (RWR)

Issued by National Weather Service (NWS)

                            
000
ASUS44 KJAN 162210
RWRMS 

MISSISSIPPI HOURLY WEATHER ROUNDUP
NATIONAL WEATHER SERVICE JACKSON MS
500 PM CDT TUE APR 16 2019

NOTE: "FAIR: INDICATES FEW OR NO CLOUDS BELOW 12,000 FEET WITH NO
SIGNIFICANT WEATHER AND/OR OBSTRUCTIONS TO VISIBILITY.

MSZ001>002-007>008-010>013-018>021-025>028-034>036-162300-
NORTHWEST MISSISSIPPI
  
CITY           SKY/WX    TMP DP  RH WIND       PRES   REMARKS
BATESVILLE     FAIR      77  46  33 SW10      30.06F                  
CLARKSDALE     SUNNY     79  54  41 S14       30.06F                  
CLEVELAND      FAIR      74  47  38 S16       30.06F                  
GREENWOOD      FAIR      78  47  33 S10       30.07F                  
GREENVILLE     FAIR      73  52  47 S13       30.05F                  
OLIVE BRANCH   PTSUNNY   75  50  41 S15       30.05F                  
OXFORD         FAIR      77  45  31 S9G16     30.08F                  
TUNICA           N/A     73  50  43 S14G20    30.06F                  
$$

MSZ003>006-009-014>017-022>024-029>033-037>039-162300-
NORTHEAST MISSISSIPPI
  
CITY           SKY/WX    TMP DP  RH WIND       PRES   REMARKS
ABERDEEN       FAIR      75  61  60 S12       30.10F                  
COLUMBUS AFB   FAIR      78  50  36 S8        30.09F                  
CORINTH        FAIR      77  50  38 S13       30.07S                  
GOLDN TRIANGLE FAIR      79  52  38 S13       30.10F                  
STARKVILLE     FAIR      77  48  36 S7        30.10F                  
TUPELO         FAIR      78  48  34 S10       30.08F                  
$$

MSZ040-058-162300-
CENTRAL MISSISSIPPI
  
CITY           SKY/WX    TMP DP  RH WIND       PRES   REMARKS
JACKSON INTL   FAIR      79  49  34 S10       30.08F                  
JACKSON HAWKNS FAIR      79  52  38 S9        30.08F                  
MADISON        FAIR      77  50  38 SE3       30.07F                  
MERIDIAN KEY   NOT AVBL                                               
MERIDIAN NAS   PTSUNNY   79  50  36 S7        30.11F                  
RAYMOND        FAIR      81  50  34 S9        30.07F                  
VICKSBURG VKS  CLEAR     81  50  34 S7G13     30.07S                  
$$

MSZ059>079-162300-
SOUTH MISSISSIPPI
  
CITY           SKY/WX    TMP DP  RH WIND       PRES   REMARKS
HATTIESBURG    FAIR      79  47  32 SE8       30.11F                  
LAUREL         CLEAR     78  52  40 S6        30.11S                  
MCCOMB         FAIR      75  47  36 S12G18    30.10F                  
NATCHEZ        FAIR      79  50  36 S12       30.07F                  
PINE BELT      FAIR      78  53  41 S7        30.11F                  
$$

MSZ080>082-162300-
COASTAL MISSISSIPPI
  
CITY           SKY/WX    TMP DP  RH WIND       PRES   REMARKS
BILOXI         FAIR      73  56  55 S9        30.13F                  
PASCAGOULA     FAIR      75  55  49 S8        30.14F                  
GULFPORT       FAIR      73  56  54 SE12      30.13F                  
$$

LAZ007>009-015>016-023>026-162300-
NORTHEAST LOUISIANA
  
CITY           SKY/WX    TMP DP  RH WIND       PRES   REMARKS
TALLULAH/VBURG FAIR      78  50  37 S8        30.07F                  
$$